Location: Unspecified
(0.0000°N, 0.0000°E)
Time: 16:29:08
(UTC+00:00)

deb r/b Ablestar - Pass Details

Date: 12 March 2026
Orbit: 726 x 907 km, 66.9° (Epoch: 18 April)

Event Time Altitude Azimuth Distance (km) Brightness Sun altitude
Rises 19:16:39 0° 171° (S) 3,388 ? -16.7°
Reaches altitude 10° 19:19:45 10° 154° (SSE) 2,484 ? -17.5°
Enters shadow 19:21:59 17° 133° (SE) 2,042 ? -18.1°
